Location: Bussy-Saint-Georges
(48.8410°N, 2.7017°E)
Time: 22:42:24
(UTC+00:00)

CZ-4B R/B - Pass Details

Date: 18 October 2021
Orbit: 808 x 882 km, 99.1° (Epoch: 07 December)

Event Time Altitude Azimuth Distance (km) Brightness Sun altitude
Rises 18:06:23 0° 174° (S) 3,454 6.3 -12.7°
Reaches altitude 10° 18:08:47 10° 178° (S) 2,526 5.7 -13.1°
Maximum altitude 18:14:21 61° 258° (WSW) 1,001 3.9 -14.0°
Drops below altitude 10° 18:19:59 10° 339° (NNW) 2,552 6.0 -14.9°
Sets 18:22:26 0° 343° (NNW) 3,493 6.7 -15.3°
